User: anonymous   Login
Location: Caltech
(34.1382°N, 118.1253°W)
Time: 06:10:34
(UTC-07:00)
Language:

Iridium 94 - Orbit

View from above orbital plane
View from above orbital plane
View from above satellite
View from above satellite

Ground track
Ground track

The orbit data is extracted from the following two-line orbital elements,

1 27374U 02005C   17289.88254979 +.00000182 +00000-0 +57845-4 0  9993
2 27374 086.4014 204.8441 0002573 067.9705 334.6066 14.34223093833364
Epoch (UTC): 16 October 2017 21:10:52
Eccentricity: 0.0002573
inclination: 86.4014°
perigee height: 776 km
apogee height: 779 km
right ascension of ascending node: 204.8441°
argument of perigee: 67.9705°
revolutions per day: 14.34223093
mean anomaly at epoch: 334.6066°
orbit number at epoch: 83336

The dashed part of the orbit path shows where the satellite is in the earth's shadow,  

DLR